FENGYUN 1C DEB

Satellite information

Favourite Embed

Satellite Type and Status

DEBRISIN ORBIT

Key statistics

Satellite FENGYUN 1C DEB at a glance.

Uptime

9668

Days in orbit

Revolutions

≈ 13.2

Per day

Orbit

SSO

Sun Synchronous Orbit

Inclination

99.4

Latest

Satellite identification and parameters

Extended collection of information and parameters for FENGYUN 1C DEB.

Object identification

Identified? True

Debris? True

Object name: FENGYUN 1C DEB

International designator: 1999-025AGQ

Object number (NORAD): 30477

Object ID (CCSDS): 30477

Country: PEOPLES REPUBLIC OF CHINA (PRC)

Current information (Y/N): Y

RCS size: SMALL

Orbital parameters

Period: 108.791 minutes

Inclination: 99.4257 deg

SMA: 7548.999 km

Apoapsis: 1495.02 km

Periapsis: 846.708 km

RAAN: 27.3666 deg

Eccentricy: 0.04294025

Argument of periapsis: 30.0493 deg

Mean anomaly: 149.7472 deg

Mean motion: 13.2363647 rev/day

Mean motion (dot): 0.00001022 rev/day2

B* drag term: 0.0015277008 1/REarth

Two-line elements (TLE)

Creation date: Oct. 27, 2025, 2:46 a.m.

Reference frame: TEME

Reference center: EARTH

Epoch: Oct. 26, 2025, 11:46 p.m. UTC

TLE line 0: 0 FENGYUN 1C DEB

TLE line 1: 1 30477U 99025AGQ 25299.99034565 .00001022 00000-0 15277-2 0 9993

TLE line 2: 2 30477 99.4257 27.3666 0429403 30.0493 149.7472 13.23636470901009

Live tracking on map

Real-time ground track for satellite FENGYUN 1C DEB.

In-orbit conjunctions

A list of the most updated potential collisions computed for object FENGYUN 1C DEB.

Target Orbit TCA Probability of collision Miss distance Type
COSMOS 469 LEO 2024-05-30 18:00:50 0.0001026605 479.0 (m) PAYLOAD

Associated space launch

Chinese polar orbiting meteorological satellite

FENGYUN 1C DEB was lifted into orbit during the mission ‘Long March 4B | Feng Yun 1C’, on board a Long March 4B space rocket.

The launch took place on May 10, 1999, 1:33 a.m. from Launch Complex 7.

For more information about the launch, click the button.

Launch to space Long March 4B | Feng Yun 1C
Long March 4B | Feng Yun 1C

Agency: N/A

Status: Launch Successful

Launch date: May 10, 1999, 1:33 a.m. UTC

Rocket: Long March 4B

Launch pad: Launch Complex 7

Location: Taiyuan Satellite Launch Center, People's Republic of China

...

Latest news about this satellite

There are no fresh news available about this satellite. Check back as we update our databases every day.


Newsletter sign-up

Weekly statistics, charts and insights to help you stay on top of the space industry.